Waycross, GA

8:56 AM EST on December 18, 2017 (GMT -0500)
Waycross-Ware County

Weather History for KAYS - March, 2013

Change the Weather History Date:

Tuesday, March 5, 2013

  Actual Average (KAMG) Record (KAMG)
Temperature  
Mean Temperature 57 °F -  
Max Temperature 73 °F 69 °F 87 °F (1989)
Min Temperature 41 °F 48 °F 24 °F (2002)
Degree Days  
Heating Degree Days 8    
Growing Degree Days 7 (Base 50)    
Moisture  
Dew Point 48 °F    
Average Humidity 68    
Maximum Humidity 94    
Minimum Humidity 46    
Precipitation  
Precipitation 0.00 in - - ()
Sea Level Pressure  
Sea Level Pressure 30.01 in    
Wind  
Wind Speed 8 mph (SW)    
Max Wind Speed 23 mph    
Max Gust Speed 31 mph    
Visibility 10 miles    
Events      
Averages and records for this station are not official NWS values.
T = Trace of Precipitation, MM = Missing Value Source: NWS Daily Summary

Daily Weather History Graph

Daily Weather History Graph

Search for Another Location

Airport or City:

Trip Planner

Search our weather history database for the weather conditions in past years. The results will help you decide how hot, cold, wet, or windy it might be!

Date:

Astronomy

Mar. 05, 2013 Rise Set
Actual Time 6:51 AM EST 6:30 PM EST
Civil Twilight 6:27 AM EST 6:55 PM EST
Nautical Twilight 5:59 AM EST 7:23 PM EST
Astronomical Twilight 5:31 AM EST 7:51 PM EST
Moon 1:45 AM EST (3/5) 12:25 PM EST (3/5)
Length of Visible Light 12h 28m
Length of Day
11h 39m
Last Quarter, 41% of the Moon is Illuminated
Mar 5
Last Quarter
Mar 11
New
Mar 19
First Quarter
Mar 27
Full
Apr 3
Last Quarter

Hourly Weather History & Observations

Time (EST) Temp. Windchill Dew Point Humidity Pressure Visibility Wind Dir Wind Speed Gust Speed Precip Events Conditions
12:15 AM 44.6 °F 40.7 °F 37.4 °F 76% 30.11 in 10.0 mi South 6.9 mph - N/A   Unknown
12:35 AM 46.4 °F 44.3 °F 39.2 °F 76% 30.11 in 10.0 mi SSW 4.6 mph - N/A   Unknown
12:55 AM 46.4 °F 44.3 °F 37.4 °F 71% 30.11 in 10.0 mi SW 4.6 mph - N/A   Unknown
1:15 AM 48.2 °F - 37.4 °F 66% 30.10 in 10.0 mi SSW 5.8 mph - N/A   Unknown
1:35 AM 48.2 °F - 37.4 °F 66% 30.12 in 10.0 mi WSW 5.8 mph - N/A   Unknown
1:55 AM 48.2 °F - 37.4 °F 66% 30.12 in 10.0 mi WSW 5.8 mph - N/A   Unknown
2:15 AM 46.4 °F 44.3 °F 37.4 °F 71% 30.12 in 10.0 mi WSW 4.6 mph - N/A   Unknown
2:35 AM 46.4 °F - 37.4 °F 71% 30.11 in 10.0 mi Calm Calm - N/A   Unknown
2:55 AM 46.4 °F - 37.4 °F 71% 30.11 in 10.0 mi Calm Calm - N/A   Unknown
3:15 AM 44.6 °F - 37.4 °F 76% 30.10 in 10.0 mi Calm Calm - N/A   Unknown
3:35 AM 44.6 °F 43.1 °F 37.4 °F 76% 30.11 in 10.0 mi SSW 3.5 mph - N/A   Unknown
3:55 AM 44.6 °F - 37.4 °F 76% 30.10 in 10.0 mi Calm Calm - N/A   Unknown
4:15 AM 44.6 °F - 37.4 °F 76% 30.12 in 10.0 mi Calm Calm - N/A   Unknown
4:35 AM 44.6 °F - 37.4 °F 76% 30.12 in 10.0 mi Calm Calm - N/A   Unknown
4:55 AM 42.8 °F - 37.4 °F 81% 30.13 in 10.0 mi Calm Calm - N/A   Unknown
5:15 AM 42.8 °F - 37.4 °F 81% 30.13 in 10.0 mi Calm Calm - N/A   Unknown
5:35 AM 42.8 °F - 37.4 °F 81% 30.13 in 10.0 mi Calm Calm - N/A   Unknown
5:55 AM 41.0 °F 38.0 °F 37.4 °F 87% 30.13 in 10.0 mi SSE 4.6 mph - N/A   Unknown
6:15 AM 44.6 °F 43.1 °F 37.4 °F 76% 30.13 in 10.0 mi South 3.5 mph - N/A   Unknown
6:35 AM 44.6 °F - 37.4 °F 76% 30.13 in 10.0 mi Calm Calm - N/A   Unknown
6:55 AM 42.8 °F - 37.4 °F 81% 30.13 in 10.0 mi Calm Calm - N/A   Unknown
7:15 AM 42.8 °F 41.1 °F 37.4 °F 81% 30.13 in 10.0 mi South 3.5 mph - N/A   Unknown
7:35 AM 44.6 °F 43.1 °F 39.2 °F 81% 30.13 in 10.0 mi South 3.5 mph - N/A   Unknown
7:55 AM 46.4 °F 44.3 °F 39.2 °F 76% 30.13 in 10.0 mi South 4.6 mph - N/A   Unknown
8:15 AM 48.2 °F - 41.0 °F 76% 30.12 in 10.0 mi South 5.8 mph - N/A   Unknown
8:35 AM 50.0 °F - 42.8 °F 76% 30.11 in 10.0 mi South 6.9 mph - N/A   Unknown
8:55 AM 53.6 °F - 44.6 °F 72% 30.10 in 10.0 mi South 10.4 mph - N/A   Clear
9:15 AM 55.4 °F - 44.6 °F 67% 30.12 in 10.0 mi SSW 9.2 mph - N/A   Scattered Clouds
9:35 AM 57.2 °F - 44.6 °F 63% 30.11 in 10.0 mi SW 12.7 mph - N/A   Mostly Cloudy
9:55 AM 60.8 °F - 44.6 °F 55% 30.11 in 10.0 mi SW 11.5 mph - N/A   Mostly Cloudy
10:15 AM 60.8 °F - 44.6 °F 55% 30.11 in 10.0 mi SSW 13.8 mph - N/A   Mostly Cloudy
10:35 AM 60.8 °F - 46.4 °F 59% 30.10 in 10.0 mi SSW 12.7 mph - N/A   Mostly Cloudy
10:55 AM 62.6 °F - 46.4 °F 55% 30.09 in 10.0 mi SSW 9.2 mph - N/A   Mostly Cloudy
11:15 AM 64.4 °F - 46.4 °F 52% 30.08 in 10.0 mi SSW 11.5 mph - N/A   Scattered Clouds
11:35 AM 66.2 °F - 48.2 °F 52% 30.07 in 10.0 mi SSW 10.4 mph - N/A   Scattered Clouds
11:55 AM 68.0 °F - 48.2 °F 49% 30.06 in 10.0 mi SSW 13.8 mph - N/A   Scattered Clouds
12:15 PM 69.8 °F - 48.2 °F 46% 30.04 in 10.0 mi SSW 11.5 mph - N/A   Clear
12:35 PM 68.0 °F - 50.0 °F 52% 30.02 in 10.0 mi SSW 13.8 mph - N/A   Clear
12:55 PM 69.8 °F - 51.8 °F 53% 30.03 in 10.0 mi SW 13.8 mph 19.6 mph N/A   Scattered Clouds
1:15 PM 69.8 °F - 51.8 °F 53% 30.02 in 10.0 mi SW 12.7 mph 18.4 mph N/A   Mostly Cloudy
1:35 PM 69.8 °F - 51.8 °F 53% 30.01 in 10.0 mi SW 11.5 mph - N/A   Mostly Cloudy
1:55 PM 69.8 °F - 53.6 °F 56% 29.98 in 10.0 mi SW 10.4 mph - N/A   Mostly Cloudy
2:15 PM 71.6 °F - 53.6 °F 53% 29.97 in 10.0 mi SW 17.3 mph 20.7 mph N/A   Mostly Cloudy
2:35 PM 71.6 °F - 53.6 °F 53% 29.97 in 10.0 mi SW 12.7 mph 21.9 mph N/A   Mostly Cloudy
2:55 PM 73.4 °F - 55.4 °F 53% 29.96 in 10.0 mi SW 20.7 mph 26.5 mph N/A   Scattered Clouds
3:15 PM 73.4 °F - 55.4 °F 53% 29.94 in 10.0 mi SW 23.0 mph 27.6 mph N/A   Scattered Clouds
3:35 PM 71.6 °F - 55.4 °F 57% 29.94 in 10.0 mi SW 19.6 mph 28.8 mph N/A   Mostly Cloudy
3:55 PM 71.6 °F - 55.4 °F 57% 29.93 in 10.0 mi SW 20.7 mph 29.9 mph N/A   Overcast
4:15 PM 71.6 °F - 55.4 °F 57% 29.92 in 10.0 mi SW 16.1 mph 27.6 mph N/A   Overcast
4:35 PM 71.6 °F - 55.4 °F 57% 29.91 in 10.0 mi SW 20.7 mph 29.9 mph N/A   Overcast
4:55 PM 71.6 °F - 55.4 °F 57% 29.90 in 10.0 mi SW 21.9 mph 31.1 mph N/A   Overcast
5:15 PM 69.8 °F - 55.4 °F 60% 29.90 in 10.0 mi SW 18.4 mph 27.6 mph N/A   Overcast
5:35 PM 69.8 °F - 55.4 °F 60% 29.89 in 10.0 mi SW 21.9 mph 27.6 mph N/A   Mostly Cloudy
5:55 PM 69.8 °F - 55.4 °F 60% 29.89 in 10.0 mi SW 15.0 mph 26.5 mph N/A   Scattered Clouds
6:15 PM 68.0 °F - 55.4 °F 64% 29.89 in 10.0 mi SW 13.8 mph 20.7 mph N/A   Scattered Clouds
6:35 PM 68.0 °F - 55.4 °F 64% 29.89 in 10.0 mi SW 16.1 mph 23.0 mph N/A   Scattered Clouds
6:55 PM 66.2 °F - 55.4 °F 68% 29.88 in 10.0 mi SW 16.1 mph 25.3 mph N/A   Mostly Cloudy
7:15 PM 66.2 °F - 55.4 °F 68% 29.87 in 10.0 mi SW 20.7 mph 31.1 mph N/A   Scattered Clouds
7:35 PM 66.2 °F - 55.4 °F 68% 29.85 in 10.0 mi SSW 23.0 mph 28.8 mph N/A   Clear
7:55 PM 66.2 °F - 57.2 °F 73% 29.85 in 10.0 mi SW 21.9 mph 25.3 mph N/A   Clear
8:15 PM 64.4 °F - 57.2 °F 77% 29.85 in 10.0 mi SW 19.6 mph 27.6 mph N/A   Clear
8:35 PM 64.4 °F - 57.2 °F 77% 29.86 in 10.0 mi SW 17.3 mph 29.9 mph N/A   Scattered Clouds
8:55 PM 66.2 °F - 57.2 °F 73% 29.86 in 10.0 mi SW 21.9 mph 28.8 mph N/A   Mostly Cloudy
9:15 PM 66.2 °F - 57.2 °F 73% 29.86 in 10.0 mi SW 15.0 mph 27.6 mph N/A   Overcast
9:35 PM 64.4 °F - 57.2 °F 77% 29.86 in 10.0 mi SW 17.3 mph 23.0 mph N/A   Mostly Cloudy
9:55 PM 64.4 °F - 59.0 °F 83% 29.87 in 10.0 mi WSW 15.0 mph 23.0 mph N/A   Overcast
10:15 PM 62.6 °F - 59.0 °F 88% 29.86 in 5.0 mi SW 12.7 mph 23.0 mph N/A   Overcast
10:35 PM 62.6 °F - 60.8 °F 94% 29.87 in 1.8 mi West 13.8 mph 19.6 mph N/A   Overcast
10:55 PM 62.6 °F - 59.0 °F 88% 29.87 in 10.0 mi West 15.0 mph - N/A   Overcast
11:15 PM 60.8 °F - 57.2 °F 88% 29.87 in 10.0 mi West 13.8 mph - N/A   Overcast
11:35 PM 60.8 °F - 57.2 °F 88% 29.88 in 10.0 mi West 11.5 mph 17.3 mph N/A   Scattered Clouds
11:55 PM 59.0 °F - 53.6 °F 82% 29.89 in 10.0 mi NW 20.7 mph 26.5 mph N/A   Mostly Cloudy